Location: Kapuskasing
(49.3803°N, 82.4001°W)
Time: 09:58:02
(UTC-04:00)

RS-44 - Pass Details

Date: 16 March 2026
Orbit: 1175 x 1510 km, 82.5° (Epoch: 11 April)

Event Time Altitude Azimuth Distance (km) Brightness Sun altitude
Rises 05:10:24 0° 345° (NNW) 4,402 ? -24.4°
Reaches altitude 10° 05:13:22 10° 338° (NNW) 3,471 ? -24.0°
Maximum altitude 05:20:45 37° 275° (W) 2,112 ? -22.9°
Enters shadow 05:21:58 35° 258° (WSW) 2,173 ? -22.7°
